Location: Ladysmith
(45.4630°N, 91.1040°W)
Time: 11:46:59
(UTC-05:00)

Amateur Radio Satellites - All Passes

Search period start: 29 July 2014 11:16
Search period end: 30 July 2014 11:16
Location: Ladysmith, 45.4630°N, 91.1040°W

Satellite Date Start Highest point End Downlink Frequencies (MHz)
Time Altitude Azimuth
FUNcube-1 29 Jul 11:24:25 11:28:33 57° 101° (E) 11:32:41 145.950 - 145.970 MHz USB
HO-68 29 Jul 11:42:51 11:49:14 36° 300° (WNW) 11:55:35 435.675 MHz FM
SO-50 29 Jul 11:54:04 11:56:50 16° 110° (ESE) 11:59:39 436.795 FM
UKube-1 29 Jul 11:54:28 11:57:20 17° 298° (WNW) 12:00:11 145.840 MHz, 145.915 MHz
Sapphire 29 Jul 11:58:52 12:01:08 13° 258° (WSW) 12:03:24 437.095 MHz 1200 baud AX-25 AFSK
Oscar 16 29 Jul 12:01:53 12:03:56 12° 55° (NE) 12:06:00 437.025 USB, Beacon 2401.1428
RS-15 29 Jul 12:03:41 12:10:51 20° 99° (E) 12:17:53 29.354 - 29.394 USB, Beacon 29.352 USB
KITSAT 1 29 Jul 12:15:39 12:21:03 19° 14° (NNE) 12:26:25 435.175 FM
Oscar 11 29 Jul 12:40:35 12:41:54 11° 301° (WNW) 12:43:12 145.825 FM, Beacon 2401.500 USB
Uribyol 2 29 Jul 12:42:13 12:44:54 14° 56° (ENE) 12:47:36 436.500 FM
AO-27 29 Jul 12:42:18 12:44:54 14° 56° (NE) 12:47:31 436.795 MHz FM
FUNcube-1 29 Jul 13:02:08 13:04:32 15° 298° (WNW) 13:06:57 145.950 - 145.970 MHz USB
Oscar 19 29 Jul 13:09:14 13:14:02 43° 68° (ENE) 13:18:52 437.125 CW, 437.150 USB
Gurwin Techsat 1B 29 Jul 13:09:23 13:09:57 10° 53° (NE) 13:10:31 435.225 FM
JAS-1B 29 Jul 13:12:09 13:19:52 31° 54° (NE) 13:28:00 435.800 - 435.900 CW/SSB
AO-Echo 29 Jul 13:22:25 13:26:58 30° 65° (ENE) 13:31:31 ?
SO-50 29 Jul 13:32:25 13:36:52 66° 309° (NW) 13:41:26 436.795 FM
Oscar 16 29 Jul 13:37:20 13:42:27 79° 74° (ENE) 13:47:36 437.025 USB, Beacon 2401.1428
UOSAT-12 29 Jul 13:52:01 13:55:14 19° 111° (ESE) 13:58:30 437.025 FM, 437.400 FM
ITAMSAT 1 29 Jul 13:59:12 14:04:19 58° 71° (ENE) 14:09:26 435.822 SSB
RS-15 29 Jul 14:10:14 14:21:19 79° 121° (ESE) 14:32:14 29.354 - 29.394 USB, Beacon 29.352 USB
KITSAT 1 29 Jul 14:11:28 14:19:02 41° 41° (NE) 14:26:32 435.175 FM
AO-27 29 Jul 14:18:25 14:23:39 86° 74° (ENE) 14:28:54 436.795 MHz FM
Uribyol 2 29 Jul 14:18:26 14:23:38 89° 75° (ENE) 14:28:52 436.500 FM
TMSAT-1 29 Jul 14:19:48 14:24:20 30° 64° (ENE) 14:28:52 436.925 FM
Gurwin Techsat 1B 29 Jul 14:43:39 14:48:52 62° 72° (ENE) 14:54:08 435.225 FM
AO-7 29 Jul 14:47:27 14:54:17 29° 52° (NE) 15:01:07 29.400 - 29.500 MHz
Oscar 19 29 Jul 14:49:18 14:53:33 26° 266° (W) 14:57:49 437.125 CW, 437.150 USB
JAS-1B 29 Jul 15:00:13 15:09:15 84° 255° (WSW) 15:19:15 435.800 - 435.900 CW/SSB
AO-Echo 29 Jul 15:00:32 15:05:33 42° 262° (W) 15:10:36 ?
SO-50 29 Jul 15:15:42 15:18:20 15° 330° (NNW) 15:21:00 436.795 FM
Oscar 16 29 Jul 15:19:50 15:22:26 14° 272° (W) 15:25:02 437.025 USB, Beacon 2401.1428
Uosat F 29 Jul 15:20:26 15:24:30 25° 63° (ENE) 15:28:34 435.120 FM
UOSAT-12 29 Jul 15:30:21 15:34:56 61° 310° (NW) 15:39:37 437.025 FM, 437.400 FM
Saudisat 1A 29 Jul 15:30:40 15:34:40 32° 43° (NE) 15:38:37 436.775 MHz
ITAMSAT 1 29 Jul 15:40:26 15:44:11 20° 268° (W) 15:47:57 435.822 SSB
TMSAT-1 29 Jul 15:59:06 16:04:05 41° 262° (W) 16:09:07 436.925 FM
AO-27 29 Jul 16:01:30 16:03:51 13° 272° (W) 16:06:12 436.795 MHz FM
Uribyol 2 29 Jul 16:01:45 16:03:50 12° 272° (W) 16:05:55 436.500 FM
KITSAT 1 29 Jul 16:06:54 16:14:50 61° 244° (WSW) 16:22:42 435.175 FM
OPAL 29 Jul 16:11:45 16:15:11 18° 93° (E) 16:18:38 ?
JAS-2 29 Jul 16:17:56 16:21:41 15° 51° (NE) 16:25:17 435.800 - 435.900 CW/SSB, 435.910 FM
RS-15 29 Jul 16:24:33 16:34:45 41° 328° (NNW) 16:44:57 29.354 - 29.394 USB, Beacon 29.352 USB
Gurwin Techsat 1B 29 Jul 16:25:33 16:29:16 19° 269° (W) 16:33:01 435.225 FM
AO-7 29 Jul 16:37:57 16:46:19 78° 253° (WSW) 16:54:45 29.400 - 29.500 MHz
JAS-1B 29 Jul 16:54:34 17:01:10 22° 277° (W) 17:08:14 435.800 - 435.900 CW/SSB
Uosat F 29 Jul 16:58:11 17:03:02 46° 261° (W) 17:07:54 435.120 FM
Saudisat 1A 29 Jul 17:10:14 17:14:17 37° 242° (WSW) 17:18:19 436.775 MHz
UOSAT-12 29 Jul 17:13:23 17:16:03 15° 331° (NNW) 17:18:46 437.025 FM, 437.400 FM
Hamsat 29 Jul 17:21:43 17:25:09 25° 67° (ENE) 17:28:36 145.90 MHz
OPAL 29 Jul 17:49:28 17:54:29 63° 290° (WNW) 17:59:32 ?
JAS-2 29 Jul 17:57:53 18:05:30 61° 70° (ENE) 18:12:33 435.800 - 435.900 CW/SSB, 435.910 FM
KITSAT 1 29 Jul 18:06:12 18:08:33 11° 263° (W) 18:10:53 435.175 FM
AO-7 29 Jul 18:35:34 18:40:26 17° 273° (W) 18:45:21 29.400 - 29.500 MHz
STRAND 1 29 Jul 18:36:33 18:39:06 14° 88° (E) 18:41:38 ?
RS-15 29 Jul 18:42:01 18:50:59 28° 2° (N) 19:00:03 29.354 - 29.394 USB, Beacon 29.352 USB
SO-50 29 Jul 18:43:22 18:43:59 10° 21° (NNE) 18:44:36 436.795 FM
HO-68 29 Jul 18:44:11 18:46:14 11° 43° (NE) 18:48:18 435.675 MHz FM
SO-67 29 Jul 18:56:00 18:59:12 36° 72° (ENE) 19:02:27 435.3500 MHz FM
Hamsat 29 Jul 18:57:17 19:01:00 31° 264° (W) 19:04:47 145.90 MHz
OPAL 29 Jul 19:31:36 19:32:25 10° 309° (NW) 19:33:13 ?
JAS-2 29 Jul 19:44:05 19:50:47 31° 267° (W) 19:57:09 435.800 - 435.900 CW/SSB, 435.910 FM
STRAND 1 29 Jul 20:13:47 20:18:55 80° 286° (WNW) 20:24:00 ?
SO-50 29 Jul 20:21:41 20:25:59 33° 43° (NE) 20:30:20 436.795 FM
HO-68 29 Jul 20:25:29 20:32:16 48° 64° (ENE) 20:39:05 435.675 MHz FM
Oscar 11 29 Jul 20:26:44 20:27:49 11° 58° (ENE) 20:28:55 145.825 FM, Beacon 2401.500 USB
SO-67 29 Jul 20:30:29 20:32:27 14° 269° (W) 20:34:26 435.3500 MHz FM
UOSAT-12 29 Jul 20:39:48 20:40:54 11° 21° (NNE) 20:41:59 437.025 FM, 437.400 FM
RS-15 29 Jul 20:56:38 21:07:02 45° 35° (NE) 21:17:40 29.354 - 29.394 USB, Beacon 29.352 USB
UKube-1 29 Jul 21:14:42 21:19:01 63° 73° (ENE) 21:23:22 145.840 MHz, 145.915 MHz
MaSat-1 29 Jul 21:27:48 21:31:53 59° 113° (ESE) 21:36:37 437.345 MHz
STRAND 1 29 Jul 21:55:11 21:57:16 13° 305° (NW) 21:59:21 ?
Oscar 11 29 Jul 21:59:01 22:03:19 90° 263° (W) 22:07:40 145.825 FM, Beacon 2401.500 USB
SO-50 29 Jul 22:02:12 22:06:38 40° 242° (WSW) 22:11:08 436.795 FM
HO-68 29 Jul 22:13:35 22:20:07 37° 263° (W) 22:26:41 435.675 MHz FM
UOSAT-12 29 Jul 22:18:07 22:22:28 35° 44° (NE) 22:26:47 437.025 FM, 437.400 FM
FUNcube-1 29 Jul 22:22:55 22:27:10 61° 74° (ENE) 22:31:21 145.950 - 145.970 MHz USB
ISS 29 Jul 22:42:20 22:43:34 12° 132° (SE) 22:44:49 145.800 FM
UKube-1 29 Jul 22:53:24 22:55:39 14° 270° (W) 22:57:54 145.840 MHz, 145.915 MHz
MaSat-1 29 Jul 23:06:15 23:09:42 22° 316° (NW) 23:13:29 437.345 MHz
RS-15 29 Jul 23:09:15 23:20:10 71° 241° (WSW) 23:31:30 29.354 - 29.394 USB, Beacon 29.352 USB
PCSat 29 Jul 23:49:17 23:52:44 18° 105° (ESE) 23:56:13 145.825 MHz
UOSAT-12 29 Jul 23:58:18 00:02:40 37° 243° (WSW) 00:06:58 437.025 FM, 437.400 FM
FUNcube-1 30 Jul 00:01:51 00:03:58 13° 270° (W) 00:06:03 145.950 - 145.970 MHz USB
ISS 30 Jul 00:16:26 00:19:46 75° 149° (SSE) 00:23:07 145.800 FM
Sapphire 30 Jul 00:56:55 01:02:12 58° 116° (ESE) 01:07:32 437.095 MHz 1200 baud AX-25 AFSK
AO-40 30 Jul 01:10:59 03:27:33 26° 203° (SSW) 07:37:48 Beacon 2401.320
Oscar 19 30 Jul 01:20:25 01:22:34 13° 87° (E) 01:24:43 437.125 CW, 437.150 USB
RS-15 30 Jul 01:24:11 01:30:27 17° 263° (W) 01:36:52 29.354 - 29.394 USB, Beacon 29.352 USB
PCSat 30 Jul 01:30:07 01:35:31 75° 303° (WNW) 01:40:58 145.825 MHz
Oscar 16 30 Jul 01:47:26 01:51:33 24° 93° (E) 01:55:40 437.025 USB, Beacon 2401.1428
ISS 30 Jul 01:53:38 01:56:43 32° 348° (NNW) 01:59:48 145.800 FM
Oscar 10/S400 30 Jul 01:57:52 02:38:51 57° 190° (S) 10:51:51 145.825 - 145.975 CW/USB, Beacon 145.810 USB
ITAMSAT 1 30 Jul 02:11:02 02:14:24 17° 90° (E) 02:17:44 435.822 SSB
Uribyol 2 30 Jul 02:29:30 02:33:50 27° 94° (E) 02:38:09 436.500 FM
AO-27 30 Jul 02:29:51 02:34:09 26° 94° (E) 02:38:26 436.795 MHz FM
Sapphire 30 Jul 02:41:23 02:45:59 28° 317° (NW) 02:50:38 437.095 MHz 1200 baud AX-25 AFSK
JAS-1B 30 Jul 02:45:18 02:53:31 33° 89° (E) 03:00:41 435.800 - 435.900 CW/SSB
Oscar 19 30 Jul 02:57:24 03:02:36 88° 285° (WNW) 03:07:48 437.125 CW, 437.150 USB
Gurwin Techsat 1B 30 Jul 02:58:26 03:02:23 21° 91° (E) 03:06:18 435.225 FM
AO-Echo 30 Jul 03:05:34 03:10:35 56° 100° (E) 03:15:24 ?
PCSat 30 Jul 03:16:17 03:19:53 18° 325° (NW) 03:23:31 145.825 MHz
Oscar 16 30 Jul 03:26:11 03:31:09 48° 291° (WNW) 03:36:06 437.025 USB, Beacon 2401.1428
OPAL 30 Jul 03:28:26 03:33:02 41° 66° (ENE) 03:37:41 ?
ISS 30 Jul 03:31:02 03:34:02 29° 8° (N) 03:37:02 145.800 FM
ITAMSAT 1 30 Jul 03:49:14 03:54:22 66° 288° (WNW) 03:59:29 435.822 SSB
Uribyol 2 30 Jul 04:08:37 04:13:28 43° 292° (WNW) 04:18:18 436.500 FM
AO-27 30 Jul 04:08:56 04:13:51 44° 292° (WNW) 04:18:44 436.795 MHz FM
TMSAT-1 30 Jul 04:12:15 04:17:33 67° 102° (ESE) 04:22:48 436.925 FM
JAS-1B 30 Jul 04:35:16 04:44:40 66° 292° (WNW) 04:52:44 435.800 - 435.900 CW/SSB
Gurwin Techsat 1B 30 Jul 04:37:31 04:42:43 57° 289° (WNW) 04:47:54 435.225 FM
AO-7 30 Jul 04:37:33 04:44:49 32° 95° (E) 04:52:00 29.400 - 29.500 MHz
Oscar 19 30 Jul 04:38:36 04:41:12 14° 303° (WNW) 04:43:47 437.125 CW, 437.150 USB
AO-Echo 30 Jul 04:45:11 04:48:55 21° 299° (WNW) 04:52:34 ?
KITSAT 1 30 Jul 04:46:25 04:50:40 15° 99° (E) 04:54:55 435.175 FM
Uosat F 30 Jul 05:03:31 05:08:21 45° 99° (E) 05:13:08 435.120 FM
ISS 30 Jul 05:07:44 05:11:07 77° 27° (NNE) 05:14:28 145.800 FM
OPAL 30 Jul 05:07:56 05:12:04 26° 263° (W) 05:16:14 ?
ITAMSAT 1 30 Jul 05:31:52 05:32:53 11° 307° (NW) 05:33:54 435.822 SSB
MaSat-1 30 Jul 05:43:55 05:48:43 33° 51° (NE) 05:53:21 437.345 MHz
TMSAT-1 30 Jul 05:53:17 05:56:57 19° 300° (WNW) 06:00:37 436.925 FM
STRAND 1 30 Jul 05:53:57 05:58:12 27° 63° (ENE) 06:02:27 ?
JAS-1B 30 Jul 06:27:09 06:33:14 20° 315° (NW) 06:38:55 435.800 - 435.900 CW/SSB
AO-7 30 Jul 06:29:53 06:38:06 64° 295° (WNW) 06:46:14 29.400 - 29.500 MHz
KITSAT 1 30 Jul 06:36:37 06:44:40 73° 119° (ESE) 06:52:44 435.175 FM
Hamsat 30 Jul 06:40:17 06:44:19 37° 97° (E) 06:48:20 145.90 MHz
Uosat F 30 Jul 06:42:50 06:46:53 25° 297° (WNW) 06:50:55 435.120 FM
ISS 30 Jul 06:45:08 06:47:29 18° 225° (SW) 06:49:49 145.800 FM
JAS-2 30 Jul 06:51:26 06:56:57 38° 95° (E) 07:01:56 435.800 - 435.900 CW/SSB, 435.910 FM
Saudisat 1A 30 Jul 07:18:36 07:22:33 33° 117° (ESE) 07:26:32 436.775 MHz
MaSat-1 30 Jul 07:21:11 07:26:12 43° 250° (WSW) 07:30:56 437.345 MHz
STRAND 1 30 Jul 07:32:16 07:37:10 44° 261° (W) 07:42:06 ?
SO-67 30 Jul 07:50:40 07:53:51 32° 97° (E) 07:57:01 435.3500 MHz FM
Sapphire 30 Jul 08:00:09 08:03:45 18° 35° (NE) 08:07:21 437.095 MHz 1200 baud AX-25 AFSK
Hamsat 30 Jul 08:16:42 08:20:05 23° 294° (WNW) 08:23:28 145.90 MHz
AO-7 30 Jul 08:24:19 08:29:19 18° 317° (NW) 08:34:19 29.400 - 29.500 MHz
PCSat 30 Jul 08:33:00 08:37:38 28° 43° (NE) 08:42:15 145.825 MHz
KITSAT 1 30 Jul 08:33:27 08:40:45 36° 322° (NW) 08:48:05 435.175 FM
JAS-2 30 Jul 08:36:39 08:41:59 34° 297° (WNW) 08:46:49 435.800 - 435.900 CW/SSB, 435.910 FM
Saudisat 1A 30 Jul 08:58:03 09:02:07 35° 315° (NW) 09:06:12 436.775 MHz
SO-67 30 Jul 09:24:23 09:26:42 17° 294° (WNW) 09:29:00 435.3500 MHz FM
HO-68 30 Jul 09:38:04 09:44:43 39° 97° (E) 09:51:18 435.675 MHz FM
Sapphire 30 Jul 09:42:41 09:48:08 75° 56° (ENE) 09:53:33 437.095 MHz 1200 baud AX-25 AFSK
Oscar 11 30 Jul 09:45:55 09:48:17 14° 90° (E) 09:50:38 145.825 FM, Beacon 2401.500 USB
PCSat 30 Jul 10:16:05 10:21:25 59° 243° (WSW) 10:26:43 145.825 MHz
KITSAT 1 30 Jul 10:33:48 10:38:59 18° 350° (N) 10:44:10 435.175 FM
UKube-1 30 Jul 10:36:53 10:41:17 87° 104° (ESE) 10:45:37 145.840 MHz, 145.915 MHz
